Time,TemperatureF,DewpointF,PressureIn,WindDirection,WindDirectionDegrees,WindSpeedMPH,WindSpeedGustMPH,Humidity,HourlyPrecipIn,Conditions,Clouds,dailyrainin,SolarRadiationWatts/m^2,SoftwareType,DateUTC
2013-05-08 00:02:00,60.0,57.0,-100.00,West,270,2.0,-999.0,92,0.00,,,-99.99,0.000000,,2013-05-08 04:02:00,
2013-05-08 00:13:00,59.0,57.0,-100.00,West,279,4.0,-999.0,94,0.00,,,-99.99,0.000000,,2013-05-08 04:13:00,
2013-05-08 00:23:00,59.0,57.0,-100.00,West,279,4.0,-999.0,94,0.00,,,-99.99,0.000000,,2013-05-08 04:23:00,
2013-05-08 00:33:00,60.0,58.0,-100.00,WNW,283,5.0,-999.0,94,0.00,,,-99.99,0.000000,,2013-05-08 04:33:00,
2013-05-08 00:43:00,61.0,58.0,-100.00,WNW,286,5.0,-999.0,91,0.00,,,-99.99,0.000000,,2013-05-08 04:43:00,
2013-05-08 00:53:00,61.0,58.0,-100.00,WNW,286,5.0,-999.0,91,0.00,,,-99.99,0.000000,,2013-05-08 04:53:00,
2013-05-08 01:02:00,61.0,58.0,-100.00,WNW,287,4.0,-999.0,90,0.00,,,-99.99,0.000000,,2013-05-08 05:02:00,
2013-05-08 01:12:00,61.0,58.0,-100.00,WNW,284,5.0,-999.0,89,0.00,,,-99.99,0.000000,,2013-05-08 05:12:00,
2013-05-08 01:22:00,61.0,58.0,-100.00,WNW,284,5.0,-999.0,89,0.00,,,-99.99,0.000000,,2013-05-08 05:22:00,
2013-05-08 01:32:00,60.0,57.0,-100.00,West,280,4.0,-999.0,90,0.00,,,-99.99,0.000000,,2013-05-08 05:32:00,
2013-05-08 01:42:00,59.0,57.0,-100.00,West,263,3.0,-999.0,92,0.00,,,-99.99,0.000000,,2013-05-08 05:42:00,
2013-05-08 01:52:00,59.0,57.0,-100.00,West,263,3.0,-999.0,92,0.00,,,-99.99,0.000000,,2013-05-08 05:52:00,
2013-05-08 02:01:00,59.0,57.0,-100.00,WSW,257,3.0,-999.0,93,0.00,,,-99.99,0.000000,,2013-05-08 06:01:00,
2013-05-08 02:12:00,58.0,57.0,-100.00,West,260,4.0,-999.0,94,0.00,,,-99.99,0.000000,,2013-05-08 06:12:00,
2013-05-08 02:21:00,58.0,57.0,-100.00,West,260,4.0,-999.0,94,0.00,,,-99.99,0.000000,,2013-05-08 06:21:00,
2013-05-08 02:32:00,57.0,56.0,-100.00,West,265,3.0,-999.0,95,0.00,,,-99.99,0.000000,,2013-05-08 06:32:00,
2013-05-08 02:42:00,57.0,56.0,-100.00,West,265,3.0,-999.0,96,0.00,,,-99.99,0.000000,,2013-05-08 06:42:00,
2013-05-08 02:52:00,57.0,56.0,-100.00,West,265,3.0,-999.0,96,0.00,,,-99.99,0.000000,,2013-05-08 06:52:00,
2013-05-08 03:02:00,57.0,56.0,-100.00,WSW,251,2.0,-999.0,96,0.00,,,-99.99,0.000000,,2013-05-08 07:02:00,
2013-05-08 03:11:00,56.0,55.0,-100.00,West,262,4.0,-999.0,97,0.00,,,-99.99,0.000000,,2013-05-08 07:11:00,
2013-05-08 03:21:00,56.0,55.0,-100.00,West,262,4.0,-999.0,97,0.00,,,-99.99,0.000000,,2013-05-08 07:21:00,
2013-05-08 03:32:00,56.0,55.0,-100.00,West,261,3.0,-999.0,97,0.00,,,-99.99,0.000000,,2013-05-08 07:32:00,
2013-05-08 03:42:00,55.0,55.0,-100.00,WSW,255,3.0,-999.0,98,0.00,,,-99.99,0.000000,,2013-05-08 07:42:00,
2013-05-08 03:52:00,55.0,55.0,-100.00,WSW,255,3.0,-999.0,98,0.00,,,-99.99,0.000000,,2013-05-08 07:52:00,
2013-05-08 04:02:00,56.0,55.0,-100.00,WSW,251,2.0,-999.0,98,0.00,,,-99.99,0.000000,,2013-05-08 08:02:00,
2013-05-08 04:12:00,56.0,55.0,-100.00,West,259,4.0,-999.0,98,0.00,,,-99.99,0.000000,,2013-05-08 08:12:00,
2013-05-08 04:21:00,56.0,55.0,-100.00,West,259,4.0,-999.0,98,0.00,,,-99.99,0.000000,,2013-05-08 08:21:00,
2013-05-08 04:32:00,56.0,56.0,-100.00,WSW,258,4.0,-999.0,99,0.00,,,-99.99,0.000000,,2013-05-08 08:32:00,
2013-05-08 04:42:00,57.0,57.0,-100.00,WSW,243,4.0,-999.0,98,0.00,,,-99.99,0.000000,,2013-05-08 08:42:00,
2013-05-08 04:52:00,57.0,57.0,-100.00,WSW,243,4.0,-999.0,98,0.00,,,-99.99,0.000000,,2013-05-08 08:52:00,
2013-05-08 05:02:00,57.0,57.0,-100.00,WSW,255,4.0,-999.0,98,0.00,,,-99.99,0.000000,,2013-05-08 09:02:00,
2013-05-08 05:11:00,56.0,56.0,-100.00,SW,231,2.0,-999.0,99,0.00,,,-99.99,0.000000,,2013-05-08 09:11:00,
2013-05-08 05:21:00,56.0,56.0,-100.00,SW,231,2.0,-999.0,99,0.00,,,-99.99,0.000000,,2013-05-08 09:21:00,
2013-05-08 05:32:00,55.0,55.0,-100.00,SSW,198,3.0,-999.0,99,0.00,,,-99.99,0.000000,,2013-05-08 09:32:00,
2013-05-08 05:42:00,55.0,55.0,-100.00,SSW,199,3.0,-999.0,99,0.00,,,-99.99,0.000000,,2013-05-08 09:42:00,
2013-05-08 05:53:00,55.0,55.0,-100.00,SSW,199,3.0,-999.0,99,0.00,,,-99.99,0.000000,,2013-05-08 09:53:00,
2013-05-08 06:02:00,55.0,55.0,-100.00,SSW,206,2.0,-999.0,99,0.00,,,-99.99,0.000000,,2013-05-08 10:02:00,
2013-05-08 06:12:00,55.0,55.0,-100.00,SSW,208,2.0,-999.0,99,0.00,,,-99.99,0.000000,,2013-05-08 10:12:00,
2013-05-08 06:22:00,55.0,55.0,-100.00,SSW,208,2.0,-999.0,99,0.00,,,-99.99,0.000000,,2013-05-08 10:22:00,
2013-05-08 06:33:00,55.0,55.0,-100.00,SSW,203,2.0,-999.0,99,0.00,,,-99.99,0.000000,,2013-05-08 10:33:00,
2013-05-08 06:42:00,55.0,55.0,-100.00,NNW,339,1.0,-999.0,100,0.00,,,-99.99,0.300000,,2013-05-08 10:42:00,
2013-05-08 06:52:00,55.0,55.0,-100.00,NNW,339,1.0,-999.0,100,0.00,,,-99.99,0.300000,,2013-05-08 10:52:00,
2013-05-08 07:02:00,54.0,54.0,-100.00,NE,52,1.0,-999.0,100,0.00,,,-99.99,3.800000,,2013-05-08 11:02:00,
2013-05-08 07:11:00,54.0,54.0,-100.00,SSE,163,1.0,-999.0,100,0.00,,,-99.99,19.200001,,2013-05-08 11:11:00,
2013-05-08 07:22:00,54.0,54.0,-100.00,SSE,163,1.0,-999.0,100,0.00,,,-99.99,19.200001,,2013-05-08 11:22:00,
2013-05-08 07:32:00,55.0,55.0,-100.00,South,174,1.0,-999.0,100,0.00,,,-99.99,56.000000,,2013-05-08 11:32:00,
2013-05-08 07:42:00,57.0,57.0,-100.00,South,190,1.0,-999.0,99,0.00,,,-99.99,105.800003,,2013-05-08 11:42:00,
2013-05-08 07:52:00,57.0,57.0,-100.00,South,190,1.0,-999.0,99,0.00,,,-99.99,105.800003,,2013-05-08 11:52:00,
2013-05-08 08:01:00,60.0,59.0,-100.00,South,189,1.0,-999.0,99,0.00,,,-99.99,90.300003,,2013-05-08 12:01:00,
2013-05-08 08:11:00,61.0,61.0,-100.00,WSW,256,2.0,-999.0,98,0.00,,,-99.99,119.500000,,2013-05-08 12:11:00,
2013-05-08 08:21:00,61.0,61.0,-100.00,WSW,256,2.0,-999.0,98,0.00,,,-99.99,119.500000,,2013-05-08 12:21:00,
2013-05-08 08:32:00,62.0,62.0,-100.00,West,271,3.0,-999.0,97,0.00,,,-99.99,249.800003,,2013-05-08 12:32:00,
2013-05-08 08:41:00,64.0,63.0,-100.00,West,278,3.0,-999.0,96,0.00,,,-99.99,299.399994,,2013-05-08 12:41:00,
2013-05-08 08:52:00,64.0,63.0,-100.00,West,278,3.0,-999.0,96,0.00,,,-99.99,299.399994,,2013-05-08 12:52:00,
2013-05-08 09:01:00,66.0,64.0,-100.00,West,274,4.0,-999.0,93,0.00,,,-99.99,350.899994,,2013-05-08 13:01:00,
2013-05-08 09:12:00,68.0,65.0,-100.00,West,278,5.0,-999.0,89,0.00,,,-99.99,406.700012,,2013-05-08 13:12:00,
2013-05-08 09:21:00,68.0,65.0,-100.00,West,278,5.0,-999.0,89,0.00,,,-99.99,406.700012,,2013-05-08 13:21:00,
2013-05-08 09:32:00,70.0,63.0,-100.00,WNW,290,7.0,-999.0,80,0.00,,,-99.99,460.100006,,2013-05-08 13:32:00,
2013-05-08 09:42:00,71.0,63.0,-100.00,WNW,285,6.0,-999.0,75,0.00,,,-99.99,509.399994,,2013-05-08 13:42:00,
2013-05-08 09:52:00,71.0,63.0,-100.00,WNW,285,6.0,-999.0,75,0.00,,,-99.99,509.399994,,2013-05-08 13:52:00,
2013-05-08 10:02:00,71.0,62.0,-100.00,West,280,7.0,-999.0,72,0.00,,,-99.99,560.500000,,2013-05-08 14:02:00,
2013-05-08 10:11:00,72.0,61.0,-100.00,West,271,6.0,-999.0,69,0.00,,,-99.99,607.799988,,2013-05-08 14:11:00,
2013-05-08 10:21:00,72.0,61.0,-100.00,West,271,6.0,-999.0,69,0.00,,,-99.99,607.799988,,2013-05-08 14:21:00,
2013-05-08 10:32:00,72.0,61.0,-100.00,West,259,5.0,-999.0,67,0.00,,,-99.99,652.200012,,2013-05-08 14:32:00,
2013-05-08 10:42:00,73.0,60.0,-100.00,West,281,6.0,-999.0,63,0.00,,,-99.99,697.200012,,2013-05-08 14:42:00,
2013-05-08 10:52:00,73.0,60.0,-100.00,West,281,6.0,-999.0,63,0.00,,,-99.99,697.200012,,2013-05-08 14:52:00,
2013-05-08 11:02:00,73.0,60.0,-100.00,West,263,6.0,-999.0,64,0.00,,,-99.99,738.000000,,2013-05-08 15:02:00,
2013-05-08 11:11:00,74.0,60.0,-100.00,WSW,256,5.0,-999.0,61,0.00,,,-99.99,781.000000,,2013-05-08 15:11:00,
2013-05-08 11:21:00,74.0,60.0,-100.00,WSW,256,5.0,-999.0,61,0.00,,,-99.99,781.000000,,2013-05-08 15:21:00,
2013-05-08 11:33:00,75.0,60.0,-100.00,WSW,244,7.0,-999.0,60,0.00,,,-99.99,827.000000,,2013-05-08 15:33:00,
2013-05-08 11:42:00,75.0,59.0,-100.00,WSW,239,5.0,-999.0,58,0.00,,,-99.99,856.000000,,2013-05-08 15:42:00,
2013-05-08 11:53:00,75.0,59.0,-100.00,WSW,239,5.0,-999.0,58,0.00,,,-99.99,856.000000,,2013-05-08 15:53:00,
2013-05-08 12:03:00,76.0,60.0,-100.00,WSW,240,5.0,-999.0,57,0.00,,,-99.99,882.000000,,2013-05-08 16:03:00,
2013-05-08 12:12:00,76.0,60.0,-100.00,WSW,238,7.0,-999.0,56,0.00,,,-99.99,961.000000,,2013-05-08 16:12:00,
2013-05-08 12:23:00,76.0,60.0,-100.00,WSW,238,7.0,-999.0,56,0.00,,,-99.99,961.000000,,2013-05-08 16:23:00,
2013-05-08 12:33:00,77.0,60.0,-100.00,WSW,238,8.0,-999.0,56,0.00,,,-99.99,965.000000,,2013-05-08 16:33:00,
2013-05-08 12:42:00,77.0,59.0,-100.00,SW,232,7.0,-999.0,54,0.00,,,-99.99,953.000000,,2013-05-08 16:42:00,
2013-05-08 12:52:00,77.0,59.0,-100.00,SW,232,7.0,-999.0,54,0.00,,,-99.99,953.000000,,2013-05-08 16:52:00,
2013-05-08 13:02:00,77.0,59.0,-100.00,WSW,244,6.0,-999.0,54,0.00,,,-99.99,769.000000,,2013-05-08 17:02:00,
2013-05-08 13:12:00,78.0,60.0,-100.00,WSW,244,6.0,-999.0,53,0.00,,,-99.99,867.000000,,2013-05-08 17:12:00,
2013-05-08 13:22:00,78.0,60.0,-100.00,WSW,244,6.0,-999.0,53,0.00,,,-99.99,867.000000,,2013-05-08 17:22:00,
2013-05-08 13:32:00,78.0,60.0,-100.00,WSW,244,6.0,-999.0,53,0.00,,,-99.99,867.000000,,2013-05-08 17:32:00,
2013-05-08 13:41:00,78.0,60.0,-100.00,WSW,244,6.0,-999.0,53,0.00,,,-99.99,867.000000,,2013-05-08 17:41:00,
2013-05-08 13:52:00,78.0,59.0,-100.00,WSW,255,8.0,-999.0,51,0.00,,,-99.99,611.700012,,2013-05-08 17:52:00,
2013-05-08 14:02:00,79.0,59.0,-100.00,WSW,258,9.0,-999.0,49,0.00,,,-99.99,1004.000000,,2013-05-08 18:02:00,
2013-05-08 14:12:00,79.0,60.0,-100.00,West,261,9.0,-999.0,51,0.00,,,-99.99,921.000000,,2013-05-08 18:12:00,
2013-05-08 14:21:00,79.0,60.0,-100.00,West,261,9.0,-999.0,51,0.00,,,-99.99,921.000000,,2013-05-08 18:21:00,
2013-05-08 14:32:00,79.0,58.0,-100.00,West,266,10.0,-999.0,49,0.00,,,-99.99,821.000000,,2013-05-08 18:32:00,
2013-05-08 14:42:00,79.0,59.0,-100.00,WSW,244,10.0,-999.0,49,0.00,,,-99.99,698.799988,,2013-05-08 18:42:00,
2013-05-08 14:52:00,79.0,59.0,-100.00,WSW,244,10.0,-999.0,49,0.00,,,-99.99,698.799988,,2013-05-08 18:52:00,
2013-05-08 15:01:00,79.0,58.0,-100.00,WSW,240,8.0,-999.0,48,0.00,,,-99.99,683.700012,,2013-05-08 19:01:00,
2013-05-08 15:11:00,80.0,59.0,-100.00,SW,236,9.0,-999.0,49,0.00,,,-99.99,793.000000,,2013-05-08 19:11:00,
2013-05-08 15:22:00,80.0,59.0,-100.00,SW,236,9.0,-999.0,49,0.00,,,-99.99,793.000000,,2013-05-08 19:22:00,
2013-05-08 15:32:00,80.0,59.0,-100.00,West,260,10.0,-999.0,49,0.00,,,-99.99,692.500000,,2013-05-08 19:32:00,
2013-05-08 15:42:00,80.0,58.0,-100.00,West,263,8.0,-999.0,47,0.00,,,-99.99,632.500000,,2013-05-08 19:42:00,
2013-05-08 15:52:00,80.0,58.0,-100.00,West,263,8.0,-999.0,47,0.00,,,-99.99,632.500000,,2013-05-08 19:52:00,
2013-05-08 16:02:00,80.0,58.0,-100.00,WSW,239,8.0,-999.0,47,0.00,,,-99.99,713.000000,,2013-05-08 20:02:00,
2013-05-08 16:11:00,81.0,59.0,-100.00,WSW,256,8.0,-999.0,46,0.00,,,-99.99,773.000000,,2013-05-08 20:11:00,
2013-05-08 16:22:00,81.0,59.0,-100.00,WSW,256,8.0,-999.0,46,0.00,,,-99.99,773.000000,,2013-05-08 20:22:00,
2013-05-08 16:32:00,81.0,58.0,-100.00,West,269,7.0,-999.0,45,0.00,,,-99.99,610.400024,,2013-05-08 20:32:00,
2013-05-08 16:42:00,81.0,58.0,-100.00,West,264,9.0,-999.0,44,0.00,,,-99.99,719.000000,,2013-05-08 20:42:00,
2013-05-08 16:52:00,81.0,58.0,-100.00,West,264,9.0,-999.0,44,0.00,,,-99.99,719.000000,,2013-05-08 20:52:00,
2013-05-08 17:01:00,81.0,58.0,-100.00,WNW,282,8.0,-999.0,45,0.00,,,-99.99,573.599976,,2013-05-08 21:01:00,
2013-05-08 17:12:00,80.0,58.0,-100.00,West,281,7.0,-999.0,45,0.00,,,-99.99,421.799988,,2013-05-08 21:12:00,
2013-05-08 17:21:00,80.0,58.0,-100.00,West,281,7.0,-999.0,45,0.00,,,-99.99,421.799988,,2013-05-08 21:21:00,
2013-05-08 17:33:00,81.0,58.0,-100.00,West,263,5.0,-999.0,45,0.00,,,-99.99,585.000000,,2013-05-08 21:33:00,
2013-05-08 17:43:00,80.0,59.0,-100.00,West,269,8.0,-999.0,47,0.00,,,-99.99,312.899994,,2013-05-08 21:43:00,
2013-05-08 17:53:00,80.0,59.0,-100.00,West,269,8.0,-999.0,47,0.00,,,-99.99,312.899994,,2013-05-08 21:53:00,
2013-05-08 18:03:00,80.0,59.0,-100.00,West,279,7.0,-999.0,47,0.00,,,-99.99,358.600006,,2013-05-08 22:03:00,
2013-05-08 18:12:00,81.0,59.0,-100.00,West,272,8.0,-999.0,47,0.00,,,-99.99,300.899994,,2013-05-08 22:12:00,
2013-05-08 18:22:00,81.0,59.0,-100.00,West,272,8.0,-999.0,47,0.00,,,-99.99,300.899994,,2013-05-08 22:22:00,
2013-05-08 18:33:00,80.0,59.0,-100.00,West,263,5.0,-999.0,48,0.00,,,-99.99,199.500000,,2013-05-08 22:33:00,
2013-05-08 18:42:00,80.0,58.0,-100.00,West,264,5.0,-999.0,48,0.00,,,-99.99,157.199997,,2013-05-08 22:42:00,
2013-05-08 18:53:00,80.0,58.0,-100.00,West,264,5.0,-999.0,48,0.00,,,-99.99,157.199997,,2013-05-08 22:53:00,
2013-05-08 19:01:00,80.0,59.0,-100.00,WNW,283,4.0,-999.0,47,0.00,,,-99.99,213.300003,,2013-05-08 23:01:00,
2013-05-08 19:12:00,80.0,59.0,-100.00,West,259,3.0,-999.0,48,0.00,,,-99.99,154.199997,,2013-05-08 23:12:00,
2013-05-08 19:22:00,80.0,59.0,-100.00,West,259,3.0,-999.0,48,0.00,,,-99.99,154.199997,,2013-05-08 23:22:00,
2013-05-08 19:32:00,78.0,61.0,-100.00,ESE,120,4.0,-999.0,55,0.00,,,-99.99,71.500000,,2013-05-08 23:32:00,
2013-05-08 19:42:00,75.0,63.0,-100.00,East,79,5.0,-999.0,64,0.00,,,-99.99,28.500000,,2013-05-08 23:42:00,
2013-05-08 19:52:00,75.0,63.0,-100.00,East,79,5.0,-999.0,64,0.00,,,-99.99,28.500000,,2013-05-08 23:52:00,
2013-05-08 20:02:00,75.0,62.0,-100.00,ESE,109,6.0,-999.0,65,0.00,,,-99.99,15.500000,,2013-05-09 00:02:00,
2013-05-08 20:12:00,74.0,62.0,-100.00,ESE,109,5.0,-999.0,67,0.00,,,-99.99,6.900000,,2013-05-09 00:12:00,
2013-05-08 20:21:00,74.0,62.0,-100.00,ESE,109,5.0,-999.0,67,0.00,,,-99.99,6.900000,,2013-05-09 00:21:00,
2013-05-08 20:32:00,73.0,62.0,-100.00,East,100,5.0,-999.0,69,0.00,,,-99.99,1.000000,,2013-05-09 00:32:00,
2013-05-08 20:42:00,72.0,63.0,-100.00,ESE,103,4.0,-999.0,71,0.00,,,-99.99,0.000000,,2013-05-09 00:42:00,
2013-05-08 20:52:00,72.0,63.0,-100.00,ESE,103,4.0,-999.0,71,0.00,,,-99.99,0.000000,,2013-05-09 00:52:00,
2013-05-08 21:01:00,72.0,63.0,-100.00,ESE,103,3.0,-999.0,73,0.00,,,-99.99,0.000000,,2013-05-09 01:01:00,
2013-05-08 21:12:00,72.0,63.0,-100.00,East,85,3.0,-999.0,74,0.00,,,-99.99,0.000000,,2013-05-09 01:12:00,
2013-05-08 21:22:00,72.0,63.0,-100.00,East,85,3.0,-999.0,74,0.00,,,-99.99,0.000000,,2013-05-09 01:22:00,
2013-05-08 21:32:00,71.0,63.0,-100.00,NE,45,2.0,-999.0,76,0.00,,,-99.99,0.000000,,2013-05-09 01:32:00,
2013-05-08 21:42:00,70.0,63.0,-100.00,East,87,1.0,-999.0,78,0.00,,,-99.99,0.000000,,2013-05-09 01:42:00,
2013-05-08 21:52:00,70.0,63.0,-100.00,East,87,1.0,-999.0,78,0.00,,,-99.99,0.000000,,2013-05-09 01:52:00,
2013-05-08 22:02:00,69.0,63.0,-100.00,ENE,74,1.0,-999.0,82,0.00,,,-99.99,0.000000,,2013-05-09 02:02:00,
2013-05-08 22:12:00,68.0,64.0,-100.00,ESE,105,0.0,-999.0,85,0.00,,,-99.99,0.000000,,2013-05-09 02:12:00,
2013-05-08 22:22:00,68.0,64.0,-100.00,ESE,105,0.0,-999.0,85,0.00,,,-99.99,0.000000,,2013-05-09 02:22:00,
2013-05-08 22:32:00,67.0,64.0,-100.00,South,172,2.0,-999.0,89,0.00,,,-99.99,0.000000,,2013-05-09 02:32:00,
2013-05-08 22:42:00,67.0,64.0,-100.00,South,172,2.0,-999.0,89,0.00,,,-99.99,0.000000,,2013-05-09 02:42:00,
2013-05-08 22:52:00,67.0,64.0,-100.00,South,172,2.0,-999.0,89,0.00,,,-99.99,0.000000,,2013-05-09 02:52:00,
2013-05-08 23:01:00,68.0,64.0,-100.00,West,274,5.0,-999.0,87,0.00,,,-99.99,0.000000,,2013-05-09 03:01:00,
2013-05-08 23:11:00,68.0,64.0,-100.00,West,281,5.0,-999.0,86,0.00,,,-99.99,0.000000,,2013-05-09 03:11:00,
2013-05-08 23:21:00,68.0,64.0,-100.00,West,281,5.0,-999.0,86,0.00,,,-99.99,0.000000,,2013-05-09 03:21:00,
2013-05-08 23:33:00,70.0,63.0,-100.00,WNW,282,7.0,-999.0,79,0.00,,,-99.99,0.000000,,2013-05-09 03:33:00,
2013-05-08 23:43:00,70.0,62.0,-100.00,WNW,287,5.0,-999.0,76,0.00,,,-99.99,0.000000,,2013-05-09 03:43:00,
2013-05-08 23:53:00,70.0,62.0,-100.00,WNW,287,5.0,-999.0,76,0.00,,,-99.99,0.000000,,2013-05-09 03:53:00,